| time (UTC) | temp F | wind direction | speed knots | gust knots | rain 1hr in | rain 24hr in | rain mn in | humidity % | barometer mb |
| 20260509040903 | 45 | 45 | 0.0 | 0.9 | 0.00 | 0.00 | 0.00 | 90 | 1015.6 |
| 20260509040003 | 46 | 45 | 0.0 | 0.9 | 0.00 | 0.00 | 0.00 | 85 | 1015.5 |
| 20260509035403 | 46 | 45 | 0.0 | 0.9 | 0.00 | 0.00 | 0.00 | 84 | 1015.6 |
| 20260509034714 | 46 | 0 | 0.0 | 0.0 | 0.00 | 0.00 | 0.00 | 84 | 1015.4 |
| 20260509033603 | 46 | 0 | 0.0 | 0.0 | 0.00 | 0.00 | 0.00 | 84 | 1015.4 |
| 20260509032703 | 46 | 45 | 0.0 | 0.9 | 0.00 | 0.00 | 0.00 | 83 | 1015.7 |
| 20260509031803 | 46 | 45 | 0.0 | 0.9 | 0.00 | 0.00 | 0.00 | 83 | 1015.7 |
| 20260509030903 | 47 | 45 | 0.0 | 0.9 | 0.00 | 0.00 | 0.00 | 83 | 1015.5 |
| 20260509030004 | 46 | 0 | 0.0 | 0.0 | 0.00 | 0.00 | 0.00 | 82 | 1015.8 |
| 20260509025403 | 47 | 45 | 0.0 | 0.9 | 0.00 | 0.00 | 0.00 | 82 | 1015.6 |
| 20260509024503 | 47 | 45 | 0.9 | 1.7 | 0.00 | 0.00 | 0.00 | 82 | 1015.5 |
| 20260509023603 | 47 | 45 | 0.0 | 1.7 | 0.00 | 0.00 | 0.00 | 82 | 1015.6 |
| 20260509022703 | 47 | 0 | 0.0 | 0.0 | 0.00 | 0.00 | 0.00 | 82 | 1015.4 |
| 20260509021803 | 48 | 45 | 0.0 | 0.9 | 0.00 | 0.00 | 0.00 | 82 | 1015.8 |
| 20260509020903 | 48 | 45 | 0.0 | 0.9 | 0.00 | 0.00 | 0.00 | 83 | 1015.8 |
| 20260509020003 | 48 | 45 | 0.9 | 1.7 | 0.00 | 0.00 | 0.00 | 83 | 1015.8 |
| 20260509015403 | 48 | 45 | 0.0 | 0.9 | 0.00 | 0.00 | 0.00 | 83 | 1015.9 |
| 20260509014503 | 49 | 45 | 0.9 | 1.7 | 0.00 | 0.00 | 0.00 | 83 | 1015.8 |
| 20260509013603 | 49 | 45 | 1.7 | 1.7 | 0.00 | 0.00 | 0.00 | 82 | 1016.0 |
| 20260509012703 | 48 | 45 | 0.9 | 1.7 | 0.00 | 0.00 | 0.00 | 82 | 1015.9 |
| 20260509012013 | 48 | 45 | 0.0 | 1.7 | 0.00 | 0.00 | 0.00 | 81 | 1015.9 |
| 20260509010903 | 49 | 45 | 0.0 | 1.7 | 0.00 | 0.00 | 0.00 | 81 | 1015.6 |
| 20260509010003 | 49 | 45 | 0.0 | 0.9 | 0.00 | 0.00 | 0.00 | 81 | 1015.8 |
| 20260509005403 | 49 | 45 | 0.0 | 0.9 | 0.00 | 0.00 | 0.00 | 81 | 1015.9 |
| 20260509004503 | 49 | 0 | 0.0 | 0.0 | 0.00 | 0.00 | 0.00 | 81 | 1016.0 |
| 20260509003603 | 49 | 0 | 0.0 | 0.0 | 0.00 | 0.00 | 0.00 | 81 | 1015.9 |
| 20260509002704 | 49 | 45 | 0.0 | 1.7 | 0.00 | 0.00 | 0.00 | 81 | 1015.8 |
| 20260509002013 | 49 | 0 | 0.0 | 0.0 | 0.00 | 0.00 | 0.00 | 81 | 1015.8 |
| 20260509000903 | 49 | 0 | 0.0 | 0.0 | 0.00 | 0.00 | 0.00 | 81 | 1016.1 |
| 20260509000004 | 49 | 0 | 0.0 | 0.0 | 0.00 | 0.00 | 0.00 | 80 | 1016.1 |
| 20260508235613 | 49 | 45 | 0.0 | 0.9 | 0.00 | 0.00 | 0.00 | 80 | 1016.0 |
| 20260508234503 | 49 | 0 | 0.0 | 0.0 | 0.00 | 0.00 | 0.00 | 80 | 1016.1 |
| 20260508233814 | 49 | 0 | 0.0 | 0.0 | 0.00 | 0.00 | 0.00 | 80 | 1015.8 |
| 20260508232703 | 49 | 0 | 0.0 | 0.0 | 0.00 | 0.00 | 0.00 | 80 | 1015.9 |
| 20260508231803 | 49 | 0 | 0.0 | 0.0 | 0.00 | 0.00 | 0.00 | 79 | 1016.1 |
| 20260508230903 | 49 | 0 | 0.0 | 0.0 | 0.00 | 0.00 | 0.00 | 79 | 1016.0 |
| 20260508230004 | 50 | 45 | 0.0 | 0.9 | 0.00 | 0.00 | 0.00 | 79 | 1015.8 |
| 20260508225613 | 50 | 45 | 0.0 | 0.9 | 0.00 | 0.00 | 0.00 | 79 | 1016.0 |
| 20260508224503 | 50 | 45 | 0.0 | 0.9 | 0.00 | 0.00 | 0.00 | 78 | 1015.8 |
| 20260508223603 | 50 | 45 | 0.0 | 0.9 | 0.00 | 0.00 | 0.00 | 79 | 1015.9 |
| 20260508222703 | 51 | 45 | 0.0 | 1.7 | 0.00 | 0.00 | 0.00 | 78 | 1015.9 |
| 20260508221803 | 51 | 45 | 0.0 | 0.9 | 0.00 | 0.00 | 0.00 | 77 | 1016.0 |
| 20260508220903 | 51 | 45 | 0.9 | 1.7 | 0.00 | 0.00 | 0.00 | 76 | 1015.9 |
| 20260508220003 | 52 | 45 | 0.0 | 0.9 | 0.00 | 0.00 | 0.00 | 75 | 1016.0 |
| 20260508215403 | 52 | 45 | 0.0 | 0.9 | 0.00 | 0.00 | 0.00 | 75 | 1016.1 |
| 20260508214503 | 52 | 0 | 0.0 | 0.0 | 0.00 | 0.00 | 0.00 | 74 | 1015.7 |
| 20260508213614 | 52 | 45 | 0.0 | 0.9 | 0.00 | 0.00 | 0.00 | 73 | 1015.8 |
| 20260508212703 | 52 | 0 | 0.0 | 0.0 | 0.00 | 0.00 | 0.00 | 73 | 1015.9 |
| 20260508211803 | 53 | 45 | 0.0 | 0.9 | 0.00 | 0.00 | 0.00 | 72 | 1015.9 |
| 20260508210903 | 53 | 45 | 0.0 | 0.9 | 0.00 | 0.00 | 0.00 | 72 | 1015.9 |
| 20260508210003 | 53 | 0 | 0.0 | 0.0 | 0.00 | 0.00 | 0.00 | 71 | 1015.8 |
| 20260508205403 | 53 | 0 | 0.0 | 0.0 | 0.00 | 0.00 | 0.00 | 71 | 1015.8 |
| 20260508204503 | 53 | 0 | 0.0 | 0.0 | 0.00 | 0.00 | 0.00 | 70 | 1015.8 |
| 20260508203812 | 54 | 45 | 0.0 | 1.7 | 0.00 | 0.00 | 0.00 | 70 | 1015.7 |
| 20260508202703 | 54 | 63 | 0.0 | 1.7 | 0.00 | 0.00 | 0.00 | 68 | 1015.4 |
| 20260508201803 | 55 | 0 | 0.0 | 0.0 | 0.00 | 0.00 | 0.00 | 63 | 1015.4 |
| 20260508200903 | 55 | 60 | 0.0 | 0.9 | 0.00 | 0.00 | 0.00 | 62 | 1015.6 |
| 20260508200003 | 56 | 97 | 0.0 | 0.9 | 0.00 | 0.00 | 0.00 | 61 | 1015.5 |
| 20260508195403 | 56 | 160 | 0.9 | 1.7 | 0.00 | 0.00 | 0.00 | 61 | 1015.3 |
| 20260508194503 | 56 | 303 | 0.0 | 0.9 | 0.00 | 0.00 | 0.00 | 60 | 1015.3 |
| 20260508193615 | 57 | 315 | 0.0 | 0.9 | 0.00 | 0.00 | 0.00 | 60 | 1015.0 |
| 20260508192913 | 58 | 281 | 0.9 | 1.7 | 0.00 | 0.00 | 0.00 | 59 | 1015.0 |
| 20260508191803 | 58 | 283 | 0.9 | 1.7 | 0.00 | 0.00 | 0.00 | 59 | 1014.9 |
| 20260508190903 | 59 | 322 | 0.0 | 1.7 | 0.00 | 0.00 | 0.00 | 58 | 1014.7 |
| 20260508190003 | 60 | 189 | 1.7 | 3.5 | 0.00 | 0.00 | 0.00 | 56 | 1014.7 |
| 20260508185403 | 60 | 173 | 1.7 | 3.5 | 0.00 | 0.00 | 0.00 | 55 | 1014.6 |
| 20260508184504 | 61 | 203 | 1.7 | 3.5 | 0.00 | 0.00 | 0.00 | 57 | 1014.7 |
| 20260508183603 | 61 | 162 | 2.6 | 7.0 | 0.00 | 0.00 | 0.00 | 58 | 1014.4 |
| 20260508182913 | 62 | 182 | 3.5 | 7.0 | 0.00 | 0.00 | 0.00 | 57 | 1014.4 |
| 20260508182012 | 63 | 201 | 2.6 | 5.2 | 0.00 | 0.00 | 0.00 | 57 | 1014.6 |
| 20260508180903 | 63 | 146 | 2.6 | 5.2 | 0.00 | 0.00 | 0.00 | 57 | 1014.5 |
| 20260508180003 | 63 | 180 | 4.3 | 6.1 | 0.00 | 0.00 | 0.00 | 59 | 1014.5 |
| 20260508175403 | 63 | 199 | 3.5 | 5.2 | 0.00 | 0.00 | 0.00 | 59 | 1014.2 |
| 20260508174503 | 63 | 183 | 3.5 | 5.2 | 0.00 | 0.00 | 0.00 | 58 | 1014.4 |
| 20260508173603 | 64 | 154 | 3.5 | 7.0 | 0.00 | 0.00 | 0.00 | 54 | 1014.1 |
| 20260508172703 | 65 | 87 | 3.5 | 4.3 | 0.00 | 0.00 | 0.00 | 55 | 1014.0 |
| 20260508171803 | 64 | 204 | 3.5 | 4.3 | 0.00 | 0.00 | 0.00 | 55 | 1013.9 |
| 20260508170903 | 65 | 147 | 3.5 | 4.3 | 0.00 | 0.00 | 0.00 | 53 | 1014.2 |
| 20260508170003 | 65 | 213 | 4.3 | 7.0 | 0.00 | 0.00 | 0.00 | 53 | 1013.9 |
| 20260508165403 | 65 | 186 | 3.5 | 7.0 | 0.00 | 0.00 | 0.00 | 52 | 1014.2 |
| 20260508164503 | 65 | 232 | 3.5 | 5.2 | 0.00 | 0.00 | 0.00 | 52 | 1013.9 |
| 20260508163603 | 65 | 124 | 2.6 | 3.5 | 0.00 | 0.00 | 0.00 | 51 | 1014.0 |
| 20260508162703 | 65 | 192 | 4.3 | 6.1 | 0.00 | 0.00 | 0.00 | 51 | 1013.5 |
| 20260508161803 | 66 | 73 | 3.5 | 5.2 | 0.00 | 0.00 | 0.00 | 51 | 1013.7 |
| 20260508161113 | 67 | 230 | 3.5 | 5.2 | 0.00 | 0.00 | 0.00 | 50 | 1014.0 |
| 20260508160003 | 66 | 236 | 5.2 | 7.8 | 0.00 | 0.00 | 0.00 | 51 | 1013.8 |
| 20260508155403 | 66 | 214 | 4.3 | 7.8 | 0.00 | 0.00 | 0.00 | 50 | 1013.6 |
| 20260508154503 | 66 | 171 | 3.5 | 6.1 | 0.00 | 0.00 | 0.00 | 51 | 1013.7 |
| 20260508153603 | 67 | 196 | 3.5 | 7.8 | 0.00 | 0.00 | 0.00 | 51 | 1013.9 |
| 20260508152703 | 67 | 185 | 4.3 | 7.0 | 0.00 | 0.00 | 0.00 | 52 | 1014.1 |
| 20260508151803 | 67 | 207 | 5.2 | 7.0 | 0.00 | 0.00 | 0.00 | 50 | 1014.0 |
| 20260508150903 | 67 | 218 | 4.3 | 6.1 | 0.00 | 0.00 | 0.00 | 50 | 1014.0 |
| 20260508150004 | 66 | 145 | 4.3 | 6.1 | 0.00 | 0.00 | 0.00 | 50 | 1013.8 |
| 20260508145403 | 66 | 155 | 4.3 | 6.1 | 0.00 | 0.00 | 0.00 | 50 | 1013.9 |
| 20260508144503 | 66 | 153 | 5.2 | 7.0 | 0.00 | 0.00 | 0.00 | 46 | 1014.1 |
| 20260508143603 | 66 | 129 | 4.3 | 7.0 | 0.00 | 0.00 | 0.00 | 46 | 1013.8 |
| 20260508142703 | 66 | 165 | 4.3 | 7.0 | 0.00 | 0.00 | 0.00 | 46 | 1013.9 |
| 20260508141803 | 65 | 182 | 6.1 | 9.6 | 0.00 | 0.00 | 0.00 | 46 | 1014.1 |
| 20260508140903 | 65 | 178 | 7.0 | 9.6 | 0.00 | 0.00 | 0.00 | 46 | 1014.0 |
| 20260508140003 | 66 | 183 | 6.1 | 8.7 | 0.00 | 0.00 | 0.00 | 46 | 1014.1 |
| 20260508135403 | 66 | 186 | 6.1 | 8.7 | 0.00 | 0.00 | 0.00 | 46 | 1014.0 |
| 20260508134503 | 67 | 174 | 5.2 | 7.8 | 0.00 | 0.00 | 0.00 | 49 | 1013.9 |
| 20260508133603 | 66 | 146 | 6.1 | 7.8 | 0.00 | 0.00 | 0.00 | 45 | 1014.1 |
| 20260508132703 | 65 | 171 | 5.2 | 7.0 | 0.00 | 0.00 | 0.00 | 50 | 1013.9 |
| 20260508131803 | 65 | 168 | 5.2 | 10.4 | 0.00 | 0.00 | 0.00 | 47 | 1013.9 |
| 20260508130903 | 65 | 203 | 6.1 | 7.8 | 0.00 | 0.00 | 0.00 | 50 | 1013.9 |
| 20260508130003 | 65 | 217 | 6.1 | 7.8 | 0.00 | 0.00 | 0.00 | 47 | 1013.7 |
| 20260508125403 | 65 | 149 | 5.2 | 7.8 | 0.00 | 0.00 | 0.00 | 49 | 1013.7 |
| 20260508124503 | 65 | 170 | 5.2 | 7.0 | 0.00 | 0.00 | 0.00 | 50 | 1014.1 |
| 20260508123604 | 64 | 209 | 6.1 | 8.7 | 0.00 | 0.00 | 0.00 | 49 | 1013.9 |
| 20260508122703 | 64 | 250 | 7.8 | 10.4 | 0.00 | 0.00 | 0.00 | 50 | 1013.8 |
| 20260508121803 | 65 | 250 | 6.1 | 8.7 | 0.00 | 0.00 | 0.00 | 49 | 1013.7 |
| 20260508120903 | 65 | 187 | 4.3 | 8.7 | 0.00 | 0.00 | 0.00 | 50 | 1013.7 |
| 20260508120003 | 65 | 165 | 4.3 | 7.0 | 0.00 | 0.00 | 0.00 | 50 | 1013.8 |
| 20260508115403 | 64 | 183 | 5.2 | 9.6 | 0.00 | 0.00 | 0.00 | 51 | 1013.7 |
| 20260508114503 | 64 | 207 | 5.2 | 9.6 | 0.00 | 0.00 | 0.00 | 52 | 1013.7 |
| 20260508113603 | 63 | 242 | 6.1 | 9.6 | 0.00 | 0.00 | 0.00 | 55 | 1013.7 |
| 20260508112703 | 64 | 129 | 5.2 | 7.0 | 0.00 | 0.00 | 0.00 | 51 | 1013.8 |
| 20260508111803 | 64 | 183 | 5.2 | 7.0 | 0.00 | 0.00 | 0.00 | 52 | 1014.0 |
| 20260508110903 | 63 | 194 | 5.2 | 7.0 | 0.00 | 0.00 | 0.00 | 56 | 1013.8 |
| 20260508110004 | 63 | 192 | 6.1 | 9.6 | 0.00 | 0.00 | 0.00 | 58 | 1013.6 |
| 20260508105614 | 63 | 194 | 6.1 | 9.6 | 0.00 | 0.00 | 0.00 | 57 | 1013.8 |
| 20260508104503 | 63 | 168 | 5.2 | 7.0 | 0.00 | 0.00 | 0.00 | 55 | 1013.8 |
| 20260508103813 | 62 | 181 | 5.2 | 7.0 | 0.00 | 0.00 | 0.00 | 58 | 1013.8 |
| 20260508102703 | 62 | 188 | 5.2 | 7.0 | 0.00 | 0.00 | 0.00 | 57 | 1013.5 |
| 20260508101803 | 63 | 140 | 3.5 | 7.0 | 0.00 | 0.00 | 0.00 | 58 | 1013.6 |
| 20260508100903 | 62 | 173 | 4.3 | 7.0 | 0.00 | 0.00 | 0.00 | 60 | 1013.6 |
| 20260508100003 | 61 | 104 | 4.3 | 7.0 | 0.00 | 0.00 | 0.00 | 61 | 1013.7 |
| 20260508095403 | 61 | 178 | 4.3 | 7.0 | 0.00 | 0.00 | 0.00 | 62 | 1013.6 |
| 20260508094503 | 61 | 138 | 4.3 | 7.0 | 0.00 | 0.00 | 0.00 | 61 | 1013.5 |
| 20260508093604 | 61 | 181 | 3.5 | 5.2 | 0.00 | 0.00 | 0.00 | 63 | 1013.2 |
| 20260508092914 | 61 | 139 | 3.5 | 5.2 | 0.00 | 0.00 | 0.00 | 66 | 1013.3 |
| 20260508091803 | 61 | 106 | 3.5 | 5.2 | 0.00 | 0.00 | 0.00 | 68 | 1013.5 |
| 20260508090903 | 60 | 61 | 3.5 | 7.0 | 0.00 | 0.00 | 0.00 | 72 | 1013.4 |
| 20260508090003 | 58 | 121 | 3.5 | 5.2 | 0.00 | 0.00 | 0.00 | 70 | 1013.6 |
| 20260508085403 | 59 | 102 | 2.6 | 4.3 | 0.00 | 0.00 | 0.00 | 69 | 1013.6 |
| 20260508084713 | 60 | 60 | 1.7 | 4.3 | 0.00 | 0.00 | 0.00 | 71 | 1013.8 |
| 20260508083603 | 58 | 87 | 2.6 | 5.2 | 0.00 | 0.00 | 0.00 | 73 | 1013.5 |
| 20260508082913 | 58 | 76 | 1.7 | 3.5 | 0.00 | 0.00 | 0.00 | 76 | 1013.5 |
| 20260508081803 | 56 | 166 | 1.7 | 3.5 | 0.00 | 0.00 | 0.00 | 76 | 1013.4 |
| 20260508080903 | 56 | 83 | 1.7 | 2.6 | 0.00 | 0.00 | 0.00 | 76 | 1013.7 |
| 20260508080003 | 55 | 141 | 1.7 | 2.6 | 0.00 | 0.00 | 0.00 | 75 | 1013.6 |
| 20260508075404 | 56 | 137 | 1.7 | 3.5 | 0.00 | 0.00 | 0.00 | 75 | 1013.6 |
| 20260508074503 | 56 | 289 | 0.9 | 3.5 | 0.00 | 0.00 | 0.00 | 75 | 1013.4 |
| 20260508073603 | 56 | 13 | 0.9 | 1.7 | 0.00 | 0.00 | 0.00 | 75 | 1013.4 |
| 20260508072703 | 57 | 37 | 1.7 | 2.6 | 0.00 | 0.00 | 0.00 | 76 | 1013.2 |
| 20260508072012 | 57 | 41 | 1.7 | 2.6 | 0.00 | 0.00 | 0.00 | 79 | 1013.2 |
| 20260508071114 | 55 | 332 | 1.7 | 2.6 | 0.00 | 0.00 | 0.00 | 77 | 1013.4 |
| 20260508070003 | 54 | 65 | 0.9 | 1.7 | 0.00 | 0.00 | 0.00 | 75 | 1013.3 |
| 20260508065403 | 55 | 65 | 1.7 | 1.7 | 0.00 | 0.00 | 0.00 | 74 | 1013.1 |
| 20260508064503 | 56 | 80 | 1.7 | 2.6 | 0.00 | 0.00 | 0.00 | 73 | 1013.2 |
| 20260508063603 | 57 | 328 | 1.7 | 3.5 | 0.00 | 0.00 | 0.00 | 76 | 1013.1 |
| 20260508062703 | 56 | 318 | 1.7 | 2.6 | 0.00 | 0.00 | 0.00 | 80 | 1012.9 |
| 20260508061803 | 56 | 30 | 1.7 | 3.5 | 0.00 | 0.00 | 0.00 | 85 | 1012.9 |
| 20260508060903 | 54 | 5 | 1.7 | 2.6 | 0.00 | 0.00 | 0.00 | 91 | 1013.1 |
| 20260508060213 | 53 | 324 | 0.9 | 1.7 | 0.00 | 0.00 | 0.00 | 91 | 1013.1 |
| 20260508055403 | 52 | 356 | 0.9 | 1.7 | 0.00 | 0.00 | 0.00 | 91 | 1013.2 |
| 20260508054503 | 51 | 360 | 0.9 | 1.7 | 0.00 | 0.00 | 0.00 | 90 | 1012.9 |
| 20260508053603 | 50 | 357 | 0.9 | 1.7 | 0.00 | 0.00 | 0.00 | 90 | 1012.8 |
| 20260508052703 | 50 | 315 | 0.9 | 1.7 | 0.00 | 0.00 | 0.00 | 90 | 1012.9 |
| 20260508051803 | 50 | 289 | 0.0 | 1.7 | 0.00 | 0.00 | 0.00 | 90 | 1012.9 |
| 20260508050903 | 49 | 349 | 0.9 | 1.7 | 0.00 | 0.00 | 0.00 | 89 | 1012.9 |
| 20260508050003 | 49 | 28 | 0.9 | 1.7 | 0.00 | 0.00 | 0.00 | 88 | 1012.9 |
| 20260508045614 | 49 | 14 | 0.9 | 1.7 | 0.00 | 0.00 | 0.00 | 88 | 1012.8 |
| 20260508044503 | 49 | 360 | 0.9 | 1.7 | 0.00 | 0.00 | 0.00 | 87 | 1012.7 |
| 20260508043603 | 50 | 321 | 0.9 | 1.7 | 0.00 | 0.00 | 0.00 | 87 | 1012.7 |
| 20260508042703 | 50 | 315 | 0.0 | 0.9 | 0.00 | 0.00 | 0.00 | 86 | 1012.9 |
| 20260508041803 | 50 | 315 | 0.0 | 1.7 | 0.00 | 0.00 | 0.00 | 86 | 1013.0 |